GOES 17

Last updated on Wed Mar 11 2026 00:02:26 GMT+0000 (Coordinated Universal Time)

1 43226U 18022A 26069.48596101 -.00000181 00000+0 00000+0 0 9996 2 43226 0.6829 87.4113 0001707 233.1137 293.0468 1.00273494 29433
UTC large
Height (km)
Speed (km/s)
/
Latitude / Longitude
Inclination (degrees)
Orbital Period (minutes)
Azimuth
Elevation
Range (km)
Doppler Factor

Next 0 passes for location: London (51.5072 / 0.1276)

Sorry there are no passes over London.